Weather History for Fairbanks Ft. Wainwright, AK

Change the Weather History Date:

Tuesday, February 18, 2014

  Actual Average Record
Temperature  
Mean Temperature -3 °F -  
Max Temperature 3 °F 12 °F 12 °F (2003)
Min Temperature -9 °F -2 °F -36 °F (2013)
Degree Days  
Heating Degree Days 68    
Moisture  
Dew Point -11 °F    
Average Humidity 70    
Maximum Humidity 92    
Minimum Humidity 61    
Precipitation  
Precipitation 0.00 in - - ()
Snow  
Snow 0.00 in - - ()
Snow Depth 20.00 in    
Sea Level Pressure  
Sea Level Pressure 29.55 in    
Wind  
Wind Speed 4 mph (ENE)    
Max Wind Speed 8 mph    
Max Gust Speed -    
Visibility 9 miles    
Events Snow    
Averages and records for this station are not official NWS values.
T = Trace of Precipitation, MM = Missing Value Source: NWS Daily Summary

Daily Weather History Graph

Daily Weather History Graph

Search for Another Location

Airport:

Trip Planner

Search our weather history database for the weather conditions in past years. The results will help you decide how hot, cold, wet, or windy it might be!

Date:

Astronomy

Feb. 18, 2014 Rise Set
Actual Time 8:37 AM AKST 5:31 PM AKST
Civil Twilight 7:46 AM AKST 6:23 PM AKST
Nautical Twilight 6:49 AM AKST 7:21 PM AKST
Astronomical Twilight 5:52 AM AKST 8:17 PM AKST
Moon 11:21 PM AKST (2/18) 8:42 AM AKST (2/18)
Length of Visible Light 10h 37m
Length of Day
8h 54m
Waning Gibbous, 86% of the Moon is Illuminated
Feb 18
Waning Gibbous
Feb 22
Last Quarter
Feb 28
New
Mar 8
First Quarter
Mar 16
Full

Hourly Weather History & Observations

Time (AKST) Temp. Windchill Dew Point Humidity Pressure Visibility Wind Dir Wind Speed Gust Speed Precip Events Conditions
12:56 AM -7.1 °F - -13.0 °F 75% 29.47 in 10.0 mi Calm Calm - N/A   Overcast
1:56 AM -5.1 °F -13.6 °F -11.0 °F 76% 29.49 in 8.0 mi East 3.5 mph - N/A   Overcast
2:56 AM -2.9 °F - -9.0 °F 75% 29.50 in 10.0 mi Calm Calm - N/A   Overcast
3:56 AM 1.0 °F -8.7 °F -7.1 °F 69% 29.50 in 6.0 mi NE 4.6 mph - N/A   Haze
4:56 AM -0.9 °F -11.0 °F -8.0 °F 72% 29.52 in 10.0 mi NE 4.6 mph - N/A   Overcast
5:56 AM -5.1 °F -17.6 °F -11.9 °F 72% 29.54 in 10.0 mi East 5.8 mph - N/A   Overcast
6:30 AM -2.2 °F -16.8 °F -9.4 °F 71% 29.50 in 10.0 mi East 8.1 mph - N/A Snow Light Snow
6:55 AM -2.2 °F -14.2 °F -9.4 °F 71% 29.56 in 10.0 mi ENE 5.8 mph - N/A   Mostly Cloudy
7:55 AM -2.2 °F -14.2 °F -11.2 °F 66% 29.57 in 10.0 mi ENE 5.8 mph - N/A   Mostly Cloudy
8:55 AM -0.4 °F -12.0 °F -9.4 °F 66% 29.57 in 10.0 mi ENE 5.8 mph - N/A   Mostly Cloudy
9:55 AM -2.2 °F -12.5 °F -9.4 °F 71% 29.58 in 10.0 mi ESE 4.6 mph - N/A   Overcast
10:55 AM -0.4 °F -13.4 °F -9.4 °F 66% 29.58 in 10.0 mi ENE 6.9 mph - N/A   Mostly Cloudy
11:55 AM -0.4 °F - -9.4 °F 66% 29.59 in 10.0 mi Calm Calm - N/A   Mostly Cloudy
12:55 PM 1.4 °F -9.9 °F -9.4 °F 61% 29.57 in 25.0 mi East 5.8 mph - N/A   Partly Cloudy
1:55 PM 3.2 °F -7.8 °F -7.6 °F 61% 29.57 in 25.0 mi East 5.8 mph - N/A   Partly Cloudy
2:55 PM 3.2 °F - -7.6 °F 61% 29.56 in 25.0 mi Calm Calm - N/A   Scattered Clouds
3:55 PM 3.2 °F -7.8 °F -7.6 °F 61% 29.54 in 25.0 mi NE 5.8 mph - N/A   Scattered Clouds
4:55 PM 1.4 °F -8.3 °F -9.4 °F 61% 29.55 in 10.0 mi East 4.6 mph - N/A   Mostly Cloudy
5:55 PM -7.6 °F -18.8 °F -9.4 °F 92% 29.55 in 10.0 mi ENE 4.6 mph - N/A   Mostly Cloudy
6:55 PM -7.6 °F -22.1 °F -13.0 °F 77% 29.55 in 7.0 mi ENE 6.9 mph - N/A   Mostly Cloudy
7:55 PM -5.8 °F -19.9 °F -13.0 °F 71% 29.56 in 7.0 mi ENE 6.9 mph - N/A   Mostly Cloudy
8:55 PM -4.0 °F -17.8 °F -13.0 °F 65% 29.56 in 7.0 mi ENE 6.9 mph - N/A   Scattered Clouds
9:55 PM -5.8 °F -14.5 °F -13.0 °F 71% 29.56 in 7.0 mi ENE 3.5 mph - N/A   Scattered Clouds
10:56 PM -9.9 °F -19.2 °F -15.0 °F 78% 29.57 in 10.0 mi East 3.5 mph - N/A   Clear
11:11 PM -7.6 °F -18.8 °F -13.0 °F 77% 29.53 in 1.5 mi NE 4.6 mph - 0.00 in Snow Light Snow
11:13 PM -9.4 °F -20.9 °F -14.8 °F 77% 29.53 in - NE 4.6 mph - 0.00 in   Haze
11:56 PM -9.9 °F -23.4 °F -16.1 °F 74% 29.58 in 10.0 mi ENE 5.8 mph - 0.00 in   Clear